Regional Weather Roundup
Issued by NWS

Home | Current Version | Previous Version | Text Only | Print | Product List | Glossary Off
Versions: 1 2 3 4 5 6 7 8 9 10 11 12 13 14 15 16 17 18 19 20 21 22 23 24 25 26 27 28 29 30 31 32 33 34 35 36 37 38 39 40 41 42 43 44 45 46 47 48 49 50

000
ASUS44 KOUN 130610
RWROK

WEATHER ROUNDUP FOR OKLAHOMA
NATIONAL WEATHER SERVICE NORMAN OK
1200 AM CST SAT FEB 13 2016

NOTE: "FAIR" INDICATES FEW OR NO CLOUDS BELOW 12,000 FEET WITH NO
      SIGNIFICANT WEATHER AND/OR OBSTRUCTIONS TO VISIBILITY.

OKZ001>007-009>012-014-015-017-130700-
NORTHWEST OKLAHOMA AND THE PANHANDLE

CITY           SKY/WX    TMP DP  RH WIND       PRES   REMARKS
GAGE           CLOUDY    28  25  88 NE7       30.43R WCI  21
6HR MIN TEMP:  28; 6HR MAX TEMP:  49;

GUYMON         CLOUDY    32  26  78 E8        30.36F WCI  25
ENID/WOODRING  CLOUDY    37  28  70 NE13      30.48S WCI  29
$$

OKZ016-021>023-033>039-044-045-130700-
SOUTHWEST OKLAHOMA

CITY           SKY/WX    TMP DP  RH WIND       PRES   REMARKS
LAWTON/REGL    CLEAR     41  31  67 N12       30.41S
6HR MIN TEMP:  41; 6HR MAX TEMP:  58;

LAWTON/FT SILL CLEAR     38  32  78 N12       30.40S WCI  31
FREDERICK      CLEAR     41  33  73 NE13      30.37S
CLINTON        CLEAR     34  27  75 NE12      30.44S WCI  25
HOBART         CLEAR     39  29  67 NE17      30.42S WCI  30
ALTUS AFB      CLEAR     38  30  71 NE12      30.41R WCI  31
$$

OKZ018>020-024>031-130700-
CENTRAL OKLAHOMA

CITY           SKY/WX    TMP DP  RH WIND       PRES   REMARKS
OKLAHOMA CITY  PTCLDY    40  27  59 NE10      30.46R WCI  33
6HR MIN TEMP:  40; 6HR MAX TEMP:  53;

OKC/WILEY POST CLOUDY    39  27  62 NE10      30.47R WCI  32
OKC/TINKER AFB PTCLDY    38  27  63 NE12      30.45R WCI  31
STILLWATER     CLOUDY    39  25  57 NE12      30.49S WCI  32
GUTHRIE        CLOUDY    38  27  64 NE6       30.47F WCI  33
$$

OKZ008-013-054>072-130700-
NORTHEAST OKLAHOMA

CITY           SKY/WX    TMP DP  RH WIND       PRES   REMARKS
TULSA          CLOUDY    38  22  52 NE9G18    30.50R WCI  31
6HR MIN TEMP:  38; 6HR MAX TEMP:  47;

TULSA/JONES    CLOUDY    40  22  48 NE15G22   30.50R WCI  32
PONCA CITY     CLOUDY    36  21  54 NE14      30.51R WCI  27
BARTLESVILLE   CLOUDY    34  16  47 NE8       30.55R WCI  27
MUSKOGEE       CLOUDY    42  28  57 N12       30.49R
$$

OKZ032-040>043-046>053-073>077-130700-
SOUTH CENTRAL/SOUTHEAST OKLAHOMA

CITY           SKY/WX    TMP DP  RH WIND       PRES   REMARKS
ARDMORE/DWNTWN PTCLDY    43  28  56 NE8       30.42S
MCALESTER      CLOUDY    43  27  53 NE6       30.44R
$$




USA.gov is the U.S. government's official web portal to all federal, state and local government web resources and services.